FW5744 Weather Reports


time (UTC)temp
C
wind
direction
speed
KPH
gust
KPH
rain 1hr
cm
rain 24hr
cm
rain mn
cm
humidity
%
barometer
mb
20260504004531 13 261 3.2 9.7 0.00 0.00 0.00 38 1011.8
20260504004031 13 249 3.2 9.7 0.00 0.00 0.00 38 1011.8
20260504003531 13 272 3.2 8.0 0.00 0.00 0.00 37 1011.8
20260504003030 13 259 1.6 8.0 0.00 0.00 0.00 37 1011.6
20260504002531 13 256 3.2 8.0 0.00 0.00 0.00 37 1011.5
20260504002030 13 272 4.8 8.0 0.00 0.00 0.00 36 1011.4
20260504001530 14 268 1.6 6.4 0.00 0.00 0.00 36 1011.3
20260504001030 14 243 3.2 8.0 0.00 0.00 0.00 35 1011.3
20260504000532 14 235 3.2 8.0 0.00 0.00 0.00 35 1011.2
20260504000029 14 359 3.2 9.7 0.00 0.00 0.00 34 1011.2
20260503235529 15 291 4.8 12.9 0.00 0.00 0.00 34 1011.1
20260503235029 15 276 4.8 14.5 0.00 0.00 0.00 33 1011.1
20260503234528 15 359 6.4 20.9 0.00 0.00 0.00 33 1011.1
20260503234029 15 297 8.0 17.7 0.00 0.00 0.00 32 1011.0
20260503233528 15 294 3.2 17.7 0.00 0.00 0.00 33 1011.1
20260503233029 15 334 8.0 17.7 0.00 0.00 0.00 32 1010.9
20260503232528 15 241 6.4 27.4 0.00 0.00 0.00 32 1010.9
20260503232028 15 245 9.7 20.9 0.00 0.00 0.00 32 1010.9
20260503231528 15 245 9.7 22.5 0.00 0.00 0.00 31 1010.8
20260503231028 15 324 8.0 24.1 0.00 0.00 0.00 32 1010.8
20260503230528 15 359 8.0 25.7 0.00 0.00 0.00 32 1010.8
20260503230028 15 359 12.9 25.7 0.00 0.00 0.00 31 1010.7
20260503225527 16 290 8.0 22.5 0.00 0.00 0.00 32 1010.7
20260503225027 16 270 9.7 19.3 0.00 0.00 0.00 32 1010.6
20260503224526 16 359 6.4 22.5 0.00 0.00 0.00 31 1010.7
20260503224027 16 337 11.3 20.9 0.00 0.00 0.00 30 1010.8
20260503223525 16 253 8.0 22.5 0.00 0.00 0.00 30 1010.6
20260503223026 16 308 9.7 22.5 0.00 0.00 0.00 30 1010.6
20260503222525 16 334 9.7 29.0 0.00 0.00 0.00 29 1010.7
20260503222026 16 335 16.1 29.0 0.00 0.00 0.00 29 1010.6
20260503221532 16 359 14.5 22.5 0.00 0.00 0.00 29 1010.5
20260503221026 16 279 9.7 19.3 0.00 0.00 0.00 30 1010.6
20260503220527 16 286 9.7 25.7 0.00 0.00 0.00 29 1010.5
20260503220025 16 313 9.7 25.7 0.00 0.00 0.00 29 1010.6
20260503215523 16 262 8.0 22.5 0.00 0.00 0.00 30 1010.6
20260503215022 16 359 11.3 22.5 0.00 0.00 0.00 29 1010.6
20260503214525 16 293 9.7 27.4 0.00 0.00 0.00 29 1010.6
20260503214022 16 16 12.9 33.8 0.00 0.00 0.00 29 1010.6
20260503213524 16 293 16.1 33.8 0.00 0.00 0.00 29 1010.4
20260503213029 15 272 17.7 32.2 0.00 0.00 0.00 29 1010.5
20260503212522 16 278 16.1 27.4 0.00 0.00 0.00 29 1010.6
20260503212020 15 354 11.3 27.4 0.00 0.00 0.00 30 1010.5
20260503211521 15 318 14.5 32.2 0.00 0.00 0.00 29 1010.5
20260503211019 15 276 16.1 32.2 0.00 0.00 0.00 29 1010.5
20260503210519 15 310 19.3 30.6 0.00 0.00 0.00 29 1010.5
20260503210018 15 359 11.3 24.1 0.00 0.00 0.00 30 1010.5
20260503205518 15 12 17.7 30.6 0.00 0.00 0.00 30 1010.4
20260503205024 15 312 19.3 30.6 0.00 0.00 0.00 30 1010.4
20260503204523 15 359 17.7 30.6 0.00 0.00 0.00 30 1010.4
20260503204016 15 287 11.3 38.6 0.00 0.00 0.00 31 1010.3
20260503203519 15 342 16.1 38.6 0.00 0.00 0.00 30 1010.4
20260503203016 15 334 19.3 32.2 0.00 0.00 0.00 31 1010.4
20260503202523 15 260 12.9 33.8 0.00 0.00 0.00 32 1010.5
20260503202016 15 4 20.9 37.0 0.00 0.00 0.00 30 1010.6
20260503201526 15 339 12.9 27.4 0.00 0.00 0.00 32 1010.6
20260503201014 15 359 12.9 29.0 0.00 0.00 0.00 32 1010.6
20260503200514 14 350 14.5 30.6 0.00 0.00 0.00 32 1010.7
20260503200013 15 359 17.7 32.2 0.00 0.00 0.00 31 1010.7
20260503195513 14 314 14.5 32.2 0.00 0.00 0.00 32 1010.7
20260503195012 15 293 14.5 30.6 0.00 0.00 0.00 32 1010.7
20260503194511 14 287 9.7 33.8 0.00 0.00 0.00 32 1010.7
20260503194011 14 359 16.1 33.8 0.00 0.00 0.00 33 1010.9
20260503193511 14 16 9.7 35.4 0.00 0.00 0.00 34 1010.9
20260503193008 13 20 16.1 35.4 0.00 0.00 0.00 34 1010.9
20260503192508 13 8 16.1 37.0 0.00 0.00 0.00 33 1011.0
20260503192013 13 359 17.7 45.1 0.00 0.00 0.00 34 1011.1
20260503191508 13 311 22.5 45.1 0.00 0.00 0.00 34 1011.0
20260503191008 13 332 14.5 40.2 0.00 0.00 0.00 34 1011.1
20260503190507 13 359 22.5 40.2 0.00 0.00 0.00 34 1011.1
20260503190017 13 17 12.9 35.4 0.00 0.00 0.00 36 1011.0
20260503185506 13 359 8.0 35.4 0.00 0.00 0.00 36 1011.0
20260503185005 13 321 19.3 30.6 0.00 0.00 0.00 35 1011.1
20260503184507 13 269 9.7 24.1 0.00 0.00 0.00 37 1011.1
20260503184004 13 289 8.0 32.2 0.00 0.00 0.00 37 1011.4
20260503183507 13 324 12.9 33.8 0.00 0.00 0.00 36 1011.4
20260503183011 13 359 16.1 33.8 0.00 0.00 0.00 37 1011.5
20260503182502 13 341 9.7 33.8 0.00 0.00 0.00 37 1011.4
20260503182001 13 271 17.7 33.8 0.00 0.00 0.00 37 1011.5
20260503181623 12 318 17.7 32.2 0.00 0.00 0.00 38 1011.4
20260503181100 12 308 14.5 27.4 0.00 0.00 0.00 39 1011.5
20260503180600 12 332 11.3 32.2 0.00 0.00 0.00 40 1011.6
20260503180134 12 300 17.7 32.2 0.00 0.00 0.00 39 1011.5
20260503175601 12 345 17.7 30.6 0.00 0.00 0.00 40 1011.5
20260503175057 12 322 16.1 30.6 0.00 0.00 0.00 40 1011.6
20260503174558 11 46 12.9 33.8 0.00 0.00 0.00 41 1011.7
20260503174056 11 359 19.3 33.8 0.00 0.00 0.00 41 1011.8
20260503173556 11 318 17.7 29.0 0.00 0.00 0.00 42 1011.9
20260503173100 11 4 12.9 32.2 0.00 0.00 0.00 42 1011.7
20260503172600 11 295 17.7 32.2 0.00 0.00 0.00 40 1011.7
20260503172055 11 4 9.7 33.8 0.00 0.00 0.00 41 1011.8
20260503171556 11 359 16.1 33.8 0.00 0.00 0.00 42 1011.9
20260503171055 11 295 17.7 32.2 0.00 0.00 0.00 41 1011.9
20260503170555 11 349 12.9 27.4 0.00 0.00 0.00 41 1011.8
20260503150550 10 359 14.5 29.0 0.00 0.00 0.00 43 1012.2
20260503131041 8 8 14.5 29.0 0.00 0.00 0.00 55 1012.2
20260503130542 8 329 16.1 29.0 0.00 0.00 0.00 54 1012.2
20260503110536 7 309 16.1 25.7 0.00 0.00 0.00 57 1011.6
20260503081515 8 18 8.0 20.9 0.00 0.00 0.00 52 1010.5
20260503081009 8 43 9.7 20.9 0.00 0.00 0.00 51 1010.3
20260503080510 8 359 9.7 24.1 0.00 0.00 0.00 51 1010.2
20260503072504 8 48 8.0 19.3 0.00 0.00 0.00 50 1010.4
20260503072003 8 41 11.3 20.9 0.00 0.00 0.00 49 1010.3
20260503071501 8 28 12.9 20.9 0.00 0.00 0.00 49 1010.3
20260503071100 8 43 9.7 22.5 0.00 0.00 0.00 49 1010.4
20260503070600 9 27 9.7 22.5 0.00 0.00 0.00 48 1010.3
20260503070109 9 4 8.0 22.5 0.00 0.00 0.00 48 1010.3
20260503060111 10 8 11.3 19.3 0.00 0.00 0.00 46 1010.5
20260503055048 10 35 12.9 24.1 0.00 0.00 0.00 45 1010.4
20260503054546 10 359 12.9 24.1 0.00 0.00 0.00 45 1010.5
20260503054045 10 31 12.9 25.7 0.00 0.00 0.00 45 1010.6
20260503053544 10 15 9.7 25.7 0.00 0.00 0.00 46 1010.6
20260503053046 10 27 9.7 20.9 0.00 0.00 0.00 46 1010.6
20260503052543 10 45 8.0 19.3 0.00 0.00 0.00 46 1010.6
20260503052043 10 349 9.7 20.9 0.00 0.00 0.00 45 1010.7
20260503051542 10 354 8.0 22.5 0.00 0.00 0.00 45 1010.8
20260503051041 10 337 11.3 22.5 0.00 0.00 0.00 45 1010.9
20260503050541 10 48 11.3 20.9 0.00 0.00 0.00 45 1011.0
20260503050040 10 23 8.0 29.0 0.00 0.00 0.00 45 1010.9
20260503045540 10 27 9.7 29.0 0.00 0.00 0.00 44 1011.1
20260503045039 10 23 17.7 27.4 0.00 0.00 0.00 44 1011.0
20260503044607 11 23 11.3 22.5 0.00 0.00 0.00 44 1011.1
20260503044037 11 354 9.7 27.4 0.00 0.00 0.00 44 1011.1
20260503043536 11 31 17.7 27.4 0.00 0.00 0.00 43 1011.0
20260503043036 11 42 9.7 27.4 0.00 0.00 0.00 44 1011.1
20260503042535 11 345 16.1 24.1 0.00 0.00 0.00 43 1011.1
20260503042036 11 31 11.3 19.3 0.00 0.00 0.00 43 1011.0
20260503041533 11 359 4.8 17.7 0.00 0.00 0.00 44 1011.1
20260503041035 11 10 9.7 20.9 0.00 0.00 0.00 43 1011.2
20260503040531 11 31 11.3 20.9 0.00 0.00 0.00 43 1011.2
20260503040030 11 54 6.4 12.9 0.00 0.00 0.00 44 1011.2
20260503035530 11 50 4.8 14.5 0.00 0.00 0.00 44 1011.1
20260503035031 11 16 6.4 17.7 0.00 0.00 0.00 43 1011.0
20260503034532 11 20 11.3 19.3 0.00 0.00 0.00 43 1011.0
20260503034031 11 11 11.3 19.3 0.00 0.00 0.00 42 1011.1
20260503033528 11 359 8.0 20.9 0.00 0.00 0.00 43 1011.1
20260503033029 11 354 8.0 19.3 0.00 0.00 0.00 43 1010.9
20260503032529 11 345 8.0 17.7 0.00 0.00 0.00 43 1011.0
20260503032030 11 10 8.0 16.1 0.00 0.00 0.00 43 1011.1
20260503031528 11 4 8.0 16.1 0.00 0.00 0.00 42 1011.0
20260503031029 11 354 4.8 16.1 0.00 0.00 0.00 42 1011.0
20260503030527 11 16 4.8 20.9 0.00 0.00 0.00 42 1011.0
20260503030031 12 23 8.0 20.9 0.00 0.00 0.00 42 1011.1
20260503025529 12 18 9.7 19.3 0.00 0.00 0.00 42 1011.1
20260503025030 12 354 6.4 16.1 0.00 0.00 0.00 41 1011.1
20260503024527 12 4 9.7 19.3 0.00 0.00 0.00 41 1011.1
20260503024027 12 359 6.4 12.9 0.00 0.00 0.00 41 1011.0
20260503023526 12 354 3.2 17.7 0.00 0.00 0.00 41 1011.1
20260503023027 12 65 6.4 17.7 0.00 0.00 0.00 41 1011.0
20260503022526 12 359 6.4 17.7 0.00 0.00 0.00 41 1011.0
20260503022029 12 339 11.3 17.7 0.00 0.00 0.00 40 1011.0
20260503021527 12 39 9.7 17.7 0.00 0.00 0.00 40 1011.0
20260503021029 12 31 8.0 17.7 0.00 0.00 0.00 40 1010.9
20260503020529 12 359 8.0 17.7 0.00 0.00 0.00 40 1011.0
20260503020034 12 11 8.0 17.7 0.00 0.00 0.00 40 1011.1
20260503015526 12 354 6.4 20.9 0.00 0.00 0.00 40 1011.0
20260503015025 12 18 9.7 20.9 0.00 0.00 0.00 40 1011.0
20260503014526 12 4 8.0 17.7 0.00 0.00 0.00 40 1011.0
20260503014026 12 17 8.0 20.9 0.00 0.00 0.00 40 1011.1
20260503013526 12 12 8.0 14.5 0.00 0.00 0.00 40 1011.2
20260503013025 12 16 4.8 14.5 0.00 0.00 0.00 41 1011.2
20260503012525 13 324 4.8 16.1 0.00 0.00 0.00 40 1011.1
20260503012026 13 4 9.7 19.3 0.00 0.00 0.00 39 1011.2
20260503011524 13 17 11.3 19.3 0.00 0.00 0.00 39 1011.1
20260503011024 13 359 4.8 16.1 0.00 0.00 0.00 40 1011.0
20260503010525 13 348 8.0 19.3 0.00 0.00 0.00 39 1011.0
20260503010025 13 18 11.3 19.3 0.00 0.00 0.00 39 1011.1
20260503005524 13 354 8.0 19.3 0.00 0.00 0.00 40 1010.8
20260503005024 13 17 9.7 17.7 0.00 0.00 0.00 40 1010.8